UAL43 EDDF-KEWR

Flight info

Callsign UAL43
Flight time N/A
Altitude 34000
Route OBOKA5G OBOKA Z29 TORNU DCT GALSO Q63 KOPUL Q60 OKSAW DCT TEWXI DCT LIPGO DCT RESNO/M084F340 DCT 55N020W 54N030W 53N040W 52N050W DCT TUDEP/N0481F340 DCT RENNY/N0472F360 DCT KJOHN DCT HANAA FLOSI4
Aircraft B77W/H-SDE1E2E3FGHIJ2J3J4J5M1RWXY/LB1D1

Departure

Time N/A
Airport Frankfurt Main Airport (EDDF)

Arrival

Time 2026-05-05 23:01
Airport Newark Liberty International Airport (KEWR)
Time Latitude Longitude Altitude Speed Heading
2026-05-05 21:54 44.52778 -71.11485 35701 ft 423 kts 237°
2026-05-05 21:54 44.49619 -71.17915 35709 ft 433 kts 236°
2026-05-05 21:55 44.46182 -71.24888 35705 ft 436 kts 237°
2026-05-05 21:55 44.42731 -71.31874 35711 ft 436 kts 237°
2026-05-05 21:56 44.39272 -71.38861 35711 ft 437 kts 237°
2026-05-05 21:56 44.35800 -71.45857 35694 ft 437 kts 237°
2026-05-05 21:57 44.32359 -71.52773 35705 ft 435 kts 237°
2026-05-05 21:57 44.28910 -71.59690 35711 ft 434 kts 237°
2026-05-05 21:58 44.25449 -71.66617 35706 ft 436 kts 237°
2026-05-05 21:58 44.21968 -71.73566 35699 ft 437 kts 237°
2026-05-05 21:59 44.18428 -71.80438 35692 ft 434 kts 236°
2026-05-05 21:59 44.14831 -71.87188 35623 ft 432 kts 236°
2026-05-05 22:00 44.11279 -71.93837 35656 ft 425 kts 236°
2026-05-05 22:00 44.07767 -72.00431 35666 ft 423 kts 236°
2026-05-05 22:01 44.04259 -72.07017 35657 ft 425 kts 236°
2026-05-05 22:01 44.00717 -72.13658 35667 ft 430 kts 236°
2026-05-05 22:02 43.97129 -72.20367 35680 ft 434 kts 236°
2026-05-05 22:02 43.93541 -72.27058 35695 ft 436 kts 236°
2026-05-05 22:03 43.89917 -72.33798 35711 ft 435 kts 236°
2026-05-05 22:03 43.86269 -72.40569 35716 ft 435 kts 237°
2026-05-05 22:04 43.82674 -72.47226 35739 ft 434 kts 237°
2026-05-05 22:04 43.79051 -72.53920 35742 ft 433 kts 237°
2026-05-05 22:05 43.75441 -72.60574 35747 ft 432 kts 237°
2026-05-05 22:05 43.71830 -72.67217 35732 ft 431 kts 237°
2026-05-05 22:06 43.68221 -72.73841 35769 ft 431 kts 237°
2026-05-05 22:06 43.64612 -72.80450 35801 ft 431 kts 237°
2026-05-05 22:07 43.60993 -72.87061 35824 ft 432 kts 237°
2026-05-05 22:07 43.57364 -72.93677 35822 ft 433 kts 237°
2026-05-05 22:08 43.53720 -73.00306 35476 ft 439 kts 237°
2026-05-05 22:08 43.51851 -73.03708 34703 ft 446 kts 237°
2026-05-05 22:08 43.49976 -73.07107 33934 ft 446 kts 237°
2026-05-05 22:08 43.48092 -73.10518 33021 ft 447 kts 237°
2026-05-05 22:09 43.46209 -73.13923 32210 ft 446 kts 237°
2026-05-05 22:09 43.44341 -73.17294 31626 ft 440 kts 237°
2026-05-05 22:09 43.42492 -73.20627 31007 ft 436 kts 236°
2026-05-05 22:09 43.40681 -73.23891 30409 ft 433 kts 236°
2026-05-05 22:10 43.38862 -73.27167 29828 ft 429 kts 236°
2026-05-05 22:10 43.37055 -73.30419 29164 ft 426 kts 236°
2026-05-05 22:10 43.35267 -73.33634 28571 ft 421 kts 236°
2026-05-05 22:10 43.33492 -73.36821 27994 ft 417 kts 236°
2026-05-05 22:11 43.31738 -73.39967 27404 ft 413 kts 236°
2026-05-05 22:11 43.30560 -73.42077 27016 ft 411 kts 236°
2026-05-05 22:11 43.28847 -73.45146 26466 ft 408 kts 236°
2026-05-05 22:11 43.27125 -73.48227 25905 ft 405 kts 236°
2026-05-05 22:12 43.25415 -73.51286 25357 ft 403 kts 236°
2026-05-05 22:12 43.23716 -73.54320 24813 ft 401 kts 235°
2026-05-05 22:12 43.22022 -73.57340 24249 ft 399 kts 235°
2026-05-05 22:12 43.20153 -73.60126 23951 ft 403 kts 223°
2026-05-05 22:13 43.17776 -73.62218 23809 ft 410 kts 208°
2026-05-05 22:13 43.15086 -73.63491 23777 ft 410 kts 201°
2026-05-05 22:13 43.12340 -73.64608 23766 ft 412 kts 201°
2026-05-05 22:13 43.09589 -73.65717 23761 ft 412 kts 201°
2026-05-05 22:14 43.06839 -73.66837 23762 ft 412 kts 201°
2026-05-05 22:14 43.04097 -73.67971 23768 ft 411 kts 201°
2026-05-05 22:14 43.01374 -73.69108 23669 ft 406 kts 201°
2026-05-05 22:14 42.98668 -73.70245 23747 ft 410 kts 202°
2026-05-05 22:15 42.95919 -73.71409 23786 ft 418 kts 201°
2026-05-05 22:15 42.93151 -73.72576 23545 ft 413 kts 201°
2026-05-05 22:15 42.90415 -73.73726 23096 ft 408 kts 201°
2026-05-05 22:15 42.87718 -73.74859 22592 ft 404 kts 201°
2026-05-05 22:16 42.85044 -73.75983 22059 ft 400 kts 201°
2026-05-05 22:16 42.82396 -73.77097 21525 ft 397 kts 202°
2026-05-05 22:16 42.79766 -73.78203 21013 ft 394 kts 202°
2026-05-05 22:16 42.77161 -73.79296 20511 ft 391 kts 202°
2026-05-05 22:17 42.74570 -73.80381 20017 ft 387 kts 202°
2026-05-05 22:17 42.72014 -73.81494 19535 ft 384 kts 203°
2026-05-05 22:17 42.69495 -73.82625 19087 ft 380 kts 203°
2026-05-05 22:17 42.67004 -73.83753 18801 ft 373 kts 204°
2026-05-05 22:18 42.64555 -73.84859 18556 ft 369 kts 204°
2026-05-05 22:18 42.62106 -73.85967 18320 ft 372 kts 204°
2026-05-05 22:18 42.59636 -73.87082 18081 ft 376 kts 203°
2026-05-05 22:18 42.57151 -73.88200 17803 ft 376 kts 203°
2026-05-05 22:19 42.54675 -73.89308 17550 ft 374 kts 204°
2026-05-05 22:19 42.52210 -73.90408 17292 ft 371 kts 203°
2026-05-05 22:19 42.49761 -73.91500 17053 ft 369 kts 203°
2026-05-05 22:19 42.47335 -73.92582 16937 ft 364 kts 204°
2026-05-05 22:20 42.44930 -73.93654 16792 ft 364 kts 204°
2026-05-05 22:20 42.42510 -73.94734 16570 ft 367 kts 204°
2026-05-05 22:20 42.40080 -73.95817 16328 ft 368 kts 204°
2026-05-05 22:20 42.37656 -73.96895 16099 ft 366 kts 203°
2026-05-05 22:21 42.35238 -73.97968 15877 ft 364 kts 203°
2026-05-05 22:21 42.32863 -73.99021 15660 ft 363 kts 204°
2026-05-05 22:21 42.30466 -74.00085 15422 ft 362 kts 204°
2026-05-05 22:21 42.28077 -74.01146 15207 ft 360 kts 204°
2026-05-05 22:22 42.25699 -74.02198 14981 ft 359 kts 204°
2026-05-05 22:22 42.23330 -74.03246 14753 ft 357 kts 204°
2026-05-05 22:22 42.20971 -74.04288 14545 ft 355 kts 204°
2026-05-05 22:22 42.18631 -74.05321 14313 ft 353 kts 204°
2026-05-05 22:23 42.16300 -74.06351 14093 ft 351 kts 204°
2026-05-05 22:23 42.13993 -74.07370 14047 ft 348 kts 204°
2026-05-05 22:23 42.11689 -74.08387 14003 ft 350 kts 204°
2026-05-05 22:23 42.09372 -74.09409 13976 ft 350 kts 204°
2026-05-05 22:24 42.07050 -74.10433 13952 ft 352 kts 203°
2026-05-05 22:24 42.04720 -74.11457 13970 ft 353 kts 204°
2026-05-05 22:24 42.02378 -74.12485 13968 ft 354 kts 204°
2026-05-05 22:24 42.00031 -74.13515 13971 ft 354 kts 204°
2026-05-05 22:25 41.97698 -74.14535 13964 ft 347 kts 204°
2026-05-05 22:25 41.95449 -74.15513 13955 ft 332 kts 204°
2026-05-05 22:25 41.93300 -74.16450 13954 ft 318 kts 204°
2026-05-05 22:25 41.91249 -74.17348 13949 ft 303 kts 205°
2026-05-05 22:26 41.89277 -74.18210 13962 ft 293 kts 205°
2026-05-05 22:26 41.87341 -74.19059 13973 ft 292 kts 205°
2026-05-05 22:26 41.85410 -74.19905 13978 ft 291 kts 205°
2026-05-05 22:26 41.83487 -74.20746 13955 ft 290 kts 205°
2026-05-05 22:27 41.81574 -74.21581 13734 ft 289 kts 205°
2026-05-05 22:27 41.79666 -74.22413 13409 ft 287 kts 205°
2026-05-05 22:27 41.77766 -74.23242 13041 ft 286 kts 205°
2026-05-05 22:27 41.75900 -74.24057 12685 ft 284 kts 205°
2026-05-05 22:28 41.74022 -74.24875 12297 ft 284 kts 205°
2026-05-05 22:28 41.72146 -74.25692 11952 ft 283 kts 204°
2026-05-05 22:28 41.70260 -74.26512 11610 ft 281 kts 204°
2026-05-05 22:28 41.68405 -74.27318 11295 ft 279 kts 204°
2026-05-05 22:29 41.66564 -74.28117 10979 ft 278 kts 204°
2026-05-05 22:29 41.64726 -74.28915 10639 ft 277 kts 203°
2026-05-05 22:29 41.62892 -74.29710 10325 ft 277 kts 203°
2026-05-05 22:29 41.61091 -74.30490 10036 ft 275 kts 203°
2026-05-05 22:30 41.59270 -74.31282 9724 ft 274 kts 202°
2026-05-05 22:30 41.57457 -74.32065 9417 ft 273 kts 202°
2026-05-05 22:30 41.55656 -74.32844 9111 ft 271 kts 202°
2026-05-05 22:30 41.53865 -74.33618 8786 ft 270 kts 202°
2026-05-05 22:31 41.52084 -74.34388 8489 ft 268 kts 202°
2026-05-05 22:31 41.50313 -74.35153 8154 ft 268 kts 202°
2026-05-05 22:31 41.48524 -74.35926 7728 ft 270 kts 202°
2026-05-05 22:31 41.46755 -74.36688 7521 ft 265 kts 202°
2026-05-05 22:32 41.45023 -74.37433 7337 ft 258 kts 202°
2026-05-05 22:32 41.43333 -74.38163 7145 ft 253 kts 202°
2026-05-05 22:32 41.41672 -74.38875 7000 ft 248 kts 202°
2026-05-05 22:32 41.40051 -74.39575 6901 ft 244 kts 202°
2026-05-05 22:33 41.38433 -74.40275 6818 ft 246 kts 202°
2026-05-05 22:33 41.36795 -74.40980 6708 ft 249 kts 202°
2026-05-05 22:33 41.35145 -74.41690 6617 ft 249 kts 202°
2026-05-05 22:33 41.33498 -74.42396 6520 ft 249 kts 202°
2026-05-05 22:34 41.31852 -74.43101 6403 ft 249 kts 202°
2026-05-05 22:34 41.30202 -74.43769 6294 ft 247 kts 194°
2026-05-05 22:34 41.28476 -74.43661 6197 ft 254 kts 169°
2026-05-05 22:34 41.26859 -74.42651 6090 ft 261 kts 153°
2026-05-05 22:35 41.25325 -74.41348 5991 ft 262 kts 152°
2026-05-05 22:35 41.23780 -74.40032 5866 ft 265 kts 153°
2026-05-05 22:35 41.22246 -74.38723 5767 ft 266 kts 153°
2026-05-05 22:35 41.20683 -74.37392 5660 ft 268 kts 152°
2026-05-05 22:36 41.19119 -74.36065 5521 ft 264 kts 152°
2026-05-05 22:36 41.17625 -74.34700 5388 ft 259 kts 146°
2026-05-05 22:36 41.16238 -74.33186 5311 ft 259 kts 146°
2026-05-05 22:36 41.14815 -74.31709 5235 ft 258 kts 148°
2026-05-05 22:37 41.13361 -74.30322 5069 ft 254 kts 151°
2026-05-05 22:37 41.11917 -74.29036 4967 ft 246 kts 152°
2026-05-05 22:37 41.10495 -74.27835 4789 ft 238 kts 154°
2026-05-05 22:37 41.09089 -74.26684 4549 ft 242 kts 154°
2026-05-05 22:38 41.07575 -74.25478 4561 ft 248 kts 154°
2026-05-05 22:38 41.06127 -74.24330 4111 ft 241 kts 154°
2026-05-05 22:38 41.04708 -74.23222 3836 ft 227 kts 155°
2026-05-05 22:38 41.03408 -74.22212 3836 ft 217 kts 155°
2026-05-05 22:39 41.02105 -74.21206 3841 ft 214 kts 155°
2026-05-05 22:39 41.00838 -74.20234 3828 ft 211 kts 155°
2026-05-05 22:39 40.99577 -74.19267 3813 ft 209 kts 156°
2026-05-05 22:39 40.98319 -74.18304 3813 ft 210 kts 155°
2026-05-05 22:40 40.97054 -74.17336 3773 ft 210 kts 155°
2026-05-05 22:40 40.95799 -74.16374 3580 ft 209 kts 157°
2026-05-05 22:40 40.94537 -74.15412 3376 ft 210 kts 156°
2026-05-05 22:40 40.93272 -74.14456 3197 ft 209 kts 156°
2026-05-05 22:41 40.91992 -74.13500 2960 ft 212 kts 156°
2026-05-05 22:41 40.90725 -74.12552 2849 ft 207 kts 156°
2026-05-05 22:41 40.89478 -74.11617 2728 ft 203 kts 157°
2026-05-05 22:41 40.88242 -74.10697 2783 ft 207 kts 157°
2026-05-05 22:42 40.86974 -74.09750 2960 ft 210 kts 157°
2026-05-05 22:42 40.85692 -74.08795 3032 ft 213 kts 156°
2026-05-05 22:42 40.84397 -74.07966 2988 ft 196 kts 174°
2026-05-05 22:42 40.83096 -74.08084 2762 ft 182 kts 201°
2026-05-05 22:43 40.81925 -74.08624 2542 ft 176 kts 202°
2026-05-05 22:43 40.80790 -74.09171 2302 ft 171 kts 205°
2026-05-05 22:43 40.79724 -74.09792 2083 ft 163 kts 207°
2026-05-05 22:43 40.78700 -74.10444 1865 ft 163 kts 207°
2026-05-05 22:44 40.77702 -74.11081 1675 ft 155 kts 208°
2026-05-05 22:44 40.76785 -74.11669 1450 ft 141 kts 206°
2026-05-05 22:44 40.75895 -74.12237 1314 ft 145 kts 206°
2026-05-05 22:44 40.74984 -74.12820 1112 ft 143 kts 208°
2026-05-05 22:45 40.74119 -74.13373 911 ft 134 kts 208°
2026-05-05 22:45 40.73268 -74.13914 772 ft 139 kts 207°
2026-05-05 22:45 40.72391 -74.14504 568 ft 142 kts 214°
2026-05-05 22:45 40.71556 -74.15121 415 ft 136 kts 207°
2026-05-05 22:46 40.71384 -74.15205 411 ft 134 kts 204°
2026-05-05 22:46 40.70582 -74.15597 211 ft 131 kts 210°
2026-05-05 22:47 40.69793 -74.16130 93 ft 132 kts 210°
2026-05-05 22:47 40.68878 -74.16655 764 ft 151 kts 206°
2026-05-05 22:47 40.67885 -74.17193 1651 ft 167 kts 204°
2026-05-05 22:47 40.66732 -74.17965 2075 ft 206 kts 215°
2026-05-05 22:48 40.65537 -74.18992 2760 ft 206 kts 214°
2026-05-05 22:48 40.64324 -74.19997 3114 ft 210 kts 214°
2026-05-05 22:48 40.63400 -74.20855 3611 ft 210 kts 225°
2026-05-05 22:48 40.62943 -74.21648 3975 ft 213 kts 245°
2026-05-05 22:49 40.62665 -74.23555 4756 ft 217 kts 274°
2026-05-05 22:49 40.63239 -74.25552 5076 ft 252 kts 299°
2026-05-05 22:49 40.64308 -74.27400 5045 ft 258 kts 306°
2026-05-05 22:49 40.65487 -74.29195 5039 ft 260 kts 307°
2026-05-05 22:50 40.66682 -74.30995 5039 ft 262 kts 307°
2026-05-05 22:50 40.67889 -74.32807 5045 ft 265 kts 307°
2026-05-05 22:50 40.69263 -74.34416 5043 ft 270 kts 327°
2026-05-05 22:50 40.71089 -74.35081 5066 ft 280 kts 356°
2026-05-05 22:51 40.73018 -74.34585 5057 ft 287 kts 20°
2026-05-05 22:51 40.73187 -74.34491 5063 ft 287 kts 21°
2026-05-05 22:51 40.74485 -74.33651 5074 ft 289 kts 26°
2026-05-05 22:51 40.76261 -74.32371 5072 ft 291 kts 27°
2026-05-05 22:52 40.78017 -74.31065 5058 ft 289 kts 28°
2026-05-05 22:52 40.79761 -74.29763 5052 ft 287 kts 27°
2026-05-05 22:52 40.81493 -74.28465 5052 ft 286 kts 27°
2026-05-05 22:52 40.83227 -74.27162 5052 ft 287 kts 28°
2026-05-05 22:53 40.84967 -74.25865 5056 ft 288 kts 27°
2026-05-05 22:53 40.86714 -74.24559 5049 ft 289 kts 27°
2026-05-05 22:53 40.88468 -74.23252 5049 ft 290 kts 27°
2026-05-05 22:53 40.90206 -74.21952 5039 ft 280 kts 27°
2026-05-05 22:54 40.91808 -74.20730 4983 ft 252 kts 27°
2026-05-05 22:54 40.93274 -74.19606 4703 ft 238 kts 27°
2026-05-05 22:54 40.94220 -74.18876 4471 ft 238 kts 27°
2026-05-05 22:54 40.95601 -74.17694 4164 ft 235 kts 44°
2026-05-05 22:55 40.96324 -74.15143 3696 ft 225 kts 102°
2026-05-05 22:55 40.95687 -74.13367 3336 ft 210 kts 139°
2026-05-05 22:55 40.94543 -74.12320 3094 ft 191 kts 162°
2026-05-05 22:55 40.93710 -74.11900 3061 ft 193 kts 166°
2026-05-05 22:56 40.92436 -74.11318 3037 ft 192 kts 166°
2026-05-05 22:56 40.91194 -74.10752 3031 ft 186 kts 166°
2026-05-05 22:56 40.89973 -74.10196 2903 ft 186 kts 166°
2026-05-05 22:56 40.88758 -74.09638 2809 ft 184 kts 167°
2026-05-05 22:57 40.87547 -74.09078 2761 ft 184 kts 166°
2026-05-05 22:57 40.86338 -74.08519 2745 ft 184 kts 166°
2026-05-05 22:57 40.85128 -74.07958 2718 ft 183 kts 166°
2026-05-05 22:57 40.83926 -74.07655 2706 ft 171 kts 196°
2026-05-05 22:58 40.82812 -74.08143 2717 ft 178 kts 203°
2026-05-05 22:58 40.81614 -74.08699 2458 ft 182 kts 203°
2026-05-05 22:58 40.80460 -74.09333 2248 ft 178 kts 207°
2026-05-05 22:58 40.79348 -74.10029 2023 ft 175 kts 207°
2026-05-05 22:59 40.78269 -74.10719 1773 ft 169 kts 208°
2026-05-05 22:59 40.77243 -74.11374 1564 ft 158 kts 208°
2026-05-05 22:59 40.76278 -74.11991 1353 ft 148 kts 207°
2026-05-05 22:59 40.75378 -74.12568 1194 ft 145 kts 207°
2026-05-05 23:00 40.73463 -74.13791 804 ft 154 kts 207°
2026-05-05 23:00 40.72508 -74.14402 628 ft 149 kts 206°
2026-05-05 23:00 40.71628 -74.14986 363 ft 137 kts 205°
2026-05-05 23:01 40.70807 -74.15494 304 ft 133 kts 207°
2026-05-05 23:01 40.69998 -74.15998 96 ft 123 kts 208°
2026-05-05 23:01 40.69257 -74.16474 29 ft 105 kts 206°
2026-05-05 23:01 40.68873 -74.16715 29 ft 31 kts 208°
2026-05-05 23:02 40.68752 -74.16858 27 ft 19 kts 231°
2026-05-05 23:02 40.68687 -74.16976 30 ft 15 kts 234°
2026-05-05 23:02 40.68637 -74.17072 30 ft 11 kts 238°
2026-05-05 23:02 40.68632 -74.17164 28 ft 12 kts 289°
2026-05-05 23:03 40.68666 -74.17264 28 ft 12 kts 295°
2026-05-05 23:03 40.68686 -74.17315 29 ft 9 kts 297°